DW7214 Weather Reports


time (UTC)temp
F
wind
direction
speed
knots
gust
knots
rain 1hr
in
rain 24hr
in
rain mn
in
humidity
%
barometer
mb
20211017152840 47 47 0.9 0.0 0.00 0.00 0.01 100 1002.9
20211017152331 47 47 0.0 0.0 0.00 0.00 0.01 100 1002.9
20211017151841 46 47 0.9 0.0 0.00 0.00 0.01 100 1002.7
20211017151332 46 47 2.6 0.0 0.00 0.00 0.01 100 1002.7
20211017150849 46 47 1.7 0.0 0.00 0.00 0.01 100 1002.7
20211017150331 46 47 0.0 0.0 0.00 0.00 0.01 100 1002.8
20211017145841 46 47 0.0 0.0 0.00 0.00 0.01 100 1002.8
20211017145332 46 47 0.9 0.0 0.00 0.00 0.01 100 1002.8
20211017144827 46 47 0.9 0.0 0.00 0.00 0.01 100 1002.9
20211017144338 46 47 0.9 0.0 0.00 0.00 0.01 100 1002.9
20211017143848 46 47 0.0 0.0 0.00 0.00 0.01 100 1002.9
20211017143341 46 47 0.0 0.0 0.00 0.00 0.01 100 1003.1
20211017142832 46 47 0.0 0.0 0.00 0.00 0.01 100 1003.1
20211017142343 46 47 0.0 0.0 0.00 0.00 0.01 100 1003.1
20211017141834 46 47 0.0 0.0 0.00 0.00 0.01 100 1003.4
20211017141345 46 47 0.0 0.0 0.00 0.00 0.01 100 1003.4
20211017140843 46 47 0.0 0.0 0.00 0.00 0.01 100 1003.4
20211017140342 46 47 0.0 0.0 0.00 0.00 0.01 100 1003.3
20211017135837 46 47 0.0 0.0 0.00 0.00 0.01 100 1003.3
20211017135328 46 47 0.0 0.0 0.00 0.00 0.01 100 1003.3
20211017134839 46 47 0.0 0.0 0.00 0.00 0.01 100 1003.3
20211017134330 46 47 0.0 0.0 0.00 0.00 0.01 100 1003.3
20211017133840 46 47 0.0 0.0 0.00 0.00 0.01 100 1003.3
20211017133333 46 47 0.0 0.0 0.00 0.00 0.01 100 1003.4
20211017132844 46 47 0.0 0.0 0.00 0.00 0.01 100 1003.4
20211017132335 46 47 0.9 0.0 0.00 0.00 0.00 100 1003.4
20211017131846 46 47 0.9 0.0 0.00 0.00 0.00 100 1003.4
20211017131341 46 47 0.9 0.0 0.00 0.00 0.00 100 1003.4
20211017130900 47 47 0.0 0.0 0.00 0.00 0.00 100 1003.4
20211017130341 47 47 0.0 0.0 0.00 0.00 0.00 100 1003.8
20211017125832 47 47 0.0 0.0 0.00 0.00 0.00 100 1003.8
20211017125343 46 47 0.0 0.0 0.00 0.00 0.00 100 1003.7
20211017124834 46 47 0.0 0.0 0.00 0.00 0.00 100 1003.9
20211017124345 47 47 0.0 0.0 0.00 0.00 0.00 100 1003.9
20211017123831 47 47 0.0 0.0 0.00 0.00 0.00 100 1003.9
20211017123344 47 47 0.0 0.0 0.00 0.00 0.00 100 1003.9
20211017122835 46 47 0.0 0.0 0.00 0.00 0.00 100 1003.9
20211017122330 47 47 0.0 0.0 0.00 0.00 0.00 100 1003.9
20211017121841 47 47 0.0 0.0 0.00 0.00 0.00 100 1004.1
20211017121332 46 47 0.0 0.0 0.00 0.00 0.00 100 1004.1
20211017120851 47 47 0.0 0.0 0.00 0.00 0.00 100 1004.1
20211017120332 47 47 0.0 0.0 0.00 0.00 0.00 100 1004.4
20211017115843 47 47 0.0 0.0 0.00 0.00 0.00 100 1004.4
20211017115334 47 47 0.0 0.0 0.00 0.00 0.00 100 1004.4
20211017114845 47 47 0.0 0.0 0.00 0.00 0.00 100 1004.4
20211017114336 47 47 0.0 0.0 0.00 0.00 0.00 100 1004.4
20211017113848 47 47 0.0 0.0 0.00 0.00 0.00 100 1004.4
20211017113343 47 47 0.0 0.0 0.00 0.00 0.00 100 1004.5
20211017112834 47 47 0.0 0.0 0.00 0.00 0.00 100 1004.5
20211017112345 48 47 0.0 0.0 0.00 0.00 0.00 100 1004.5
20211017111836 48 47 0.0 0.0 0.00 0.00 0.00 100 1004.4
20211017111327 49 47 0.0 0.0 0.00 0.00 0.00 100 1004.5
20211017110845 49 47 0.0 0.0 0.00 0.00 0.00 100 1004.5
20211017110346 49 47 0.0 0.0 0.00 0.00 0.00 100 1005.0
20211017105837 49 47 0.0 0.0 0.00 0.00 0.00 100 1005.0
20211017105332 49 47 0.0 0.0 0.00 0.00 0.00 100 1005.0
20211017104843 49 47 0.0 0.0 0.00 0.00 0.00 100 1005.1
20211017104334 49 47 0.0 0.0 0.00 0.00 0.00 100 1005.1
20211017103843 49 47 0.0 0.0 0.00 0.00 0.00 100 1005.1
20211017103334 49 47 0.0 0.0 0.00 0.00 0.00 100 1005.3
20211017102845 49 47 0.0 0.0 0.00 0.00 0.00 100 1005.3
20211017102336 49 47 0.0 0.0 0.00 0.00 0.00 100 1005.3
20211017101827 49 47 0.0 0.0 0.00 0.00 0.00 100 1005.6
20211017101338 49 47 0.0 0.0 0.00 0.00 0.00 100 1005.6
20211017100841 49 47 0.0 0.0 0.00 0.00 0.00 100 1005.6
20211017100344 49 47 0.0 0.0 0.00 0.00 0.00 100 1005.6
20211017095835 49 47 0.0 0.0 0.00 0.00 0.00 100 1005.6
20211017095346 49 47 0.0 0.0 0.00 0.00 0.00 100 1005.6
20211017094837 49 47 0.0 0.0 0.00 0.00 0.00 100 1005.6
20211017094328 49 47 0.0 0.0 0.00 0.00 0.00 100 1005.6
20211017093838 50 47 0.0 0.0 0.00 0.00 0.00 100 1005.6
20211017093333 49 47 0.0 0.0 0.00 0.00 0.00 100 1005.9
20211017092844 48 47 0.0 0.0 0.00 0.00 0.00 100 1005.9
20211017092335 49 48 0.0 0.0 0.00 0.00 0.00 100 1005.9
20211017091830 49 47 0.0 0.0 0.00 0.00 0.00 100 1006.2
20211017091341 49 47 0.0 0.0 0.00 0.00 0.00 100 1006.2
20211017090900 49 47 0.0 0.0 0.00 0.00 0.00 100 1006.2
20211017090343 49 47 0.0 0.0 0.00 0.00 0.00 100 1006.2
20211017085834 49 48 0.0 0.0 0.00 0.00 0.00 100 1006.2
20211017085345 50 47 0.0 0.0 0.00 0.00 0.00 100 1006.2
20211017084833 50 47 0.0 0.0 0.00 0.00 0.00 100 1006.2
20211017084344 51 47 0.0 0.0 0.00 0.00 0.00 100 1006.2
20211017083833 51 47 0.0 0.0 0.00 0.00 0.00 100 1006.2
20211017083328 51 47 0.0 0.0 0.00 0.00 0.00 100 1006.1
20211017082839 51 47 0.0 0.0 0.00 0.00 0.00 100 1006.1
20211017082330 51 47 0.0 0.0 0.00 0.00 0.00 100 1006.1
20211017081839 51 47 0.0 0.0 0.00 0.00 0.00 100 1006.4
20211017081330 52 47 0.0 0.0 0.00 0.00 0.00 100 1006.5
20211017080850 52 47 0.0 0.0 0.00 0.00 0.00 100 1006.5
20211017080331 52 48 0.0 0.0 0.00 0.00 0.00 100 1006.6
20211017075842 52 47 0.0 0.0 0.00 0.00 0.00 100 1006.6
20211017075333 52 47 0.0 0.0 0.00 0.00 0.00 100 1006.6
20211017074828 52 47 0.0 0.0 0.00 0.00 0.00 100 1006.9
20211017074339 51 47 0.0 0.0 0.00 0.00 0.00 100 1006.8
20211017073847 51 48 0.0 0.0 0.00 0.00 0.00 100 1006.8
20211017073340 52 47 0.0 0.0 0.00 0.00 0.00 100 1007.0
20211017072831 52 47 0.0 0.0 0.00 0.00 0.00 100 1007.0
20211017072342 52 47 0.0 0.0 0.00 0.00 0.00 100 1007.0
20211017071833 52 47 0.0 0.0 0.00 0.00 0.00 100 1007.1
20211017071343 52 47 0.0 0.0 0.00 0.00 0.00 100 1007.1
20211017070901 53 47 0.0 0.0 0.00 0.00 0.00 100 1007.1
20211017070343 53 47 0.0 0.0 0.00 0.00 0.00 100 1007.1
20211017065835 53 47 0.0 0.0 0.00 0.00 0.00 100 1007.1
20211017065346 53 47 0.0 0.0 0.00 0.00 0.00 100 1007.1
20211017064837 53 47 0.0 0.0 0.00 0.00 0.00 100 1007.4
20211017064328 53 47 0.0 0.0 0.00 0.00 0.00 100 1007.4
20211017063837 53 47 0.0 0.0 0.00 0.00 0.00 100 1007.4
20211017063330 53 47 0.0 0.0 0.00 0.00 0.00 100 1007.6
20211017062841 53 47 0.0 0.0 0.00 0.00 0.00 100 1007.6
20211017062332 53 47 0.0 0.0 0.00 0.00 0.00 100 1007.6
20211017061843 53 47 0.0 0.0 0.00 0.00 0.00 100 1007.7
20211017061338 53 47 0.0 0.0 0.00 0.00 0.00 100 1007.7
20211017060857 53 47 0.0 0.0 0.00 0.00 0.00 100 1007.7
20211017060339 53 47 0.0 0.0 0.00 0.00 0.00 100 1007.6
20211017055830 53 47 0.0 0.0 0.00 0.00 0.00 100 1007.6
20211017055341 53 47 0.0 0.0 0.00 0.00 0.00 100 1007.6
20211017054832 53 47 0.0 0.0 0.00 0.00 0.00 100 1007.7
20211017054343 53 47 0.0 0.0 0.00 0.00 0.00 100 1007.7
20211017053831 54 47 0.0 0.0 0.00 0.00 0.00 100 1007.7
20211017053344 54 47 0.0 0.0 0.00 0.00 0.00 100 1007.8
20211017052835 54 47 0.0 0.0 0.00 0.00 0.00 100 1007.8
20211017052330 55 47 0.0 0.0 0.00 0.00 0.00 100 1007.8
20211017051841 55 47 0.0 0.0 0.00 0.00 0.00 100 1007.9
20211017051332 56 47 0.0 0.0 0.00 0.00 0.00 100 1008.0
20211017050851 56 47 0.0 0.0 0.00 0.00 0.00 100 1008.0
20211017050332 56 47 0.0 0.0 0.00 0.00 0.00 100 1008.0
20211017045840 57 48 0.0 0.0 0.00 0.00 0.00 100 1008.0
20211017045331 57 48 0.0 0.0 0.00 0.00 0.00 100 1008.0
20211017044842 57 48 0.0 0.0 0.00 0.00 0.00 100 1008.1
20211017044333 57 47 0.0 0.0 0.00 0.00 0.00 100 1008.1
20211017043847 57 47 0.0 0.0 0.00 0.00 0.00 100 1008.1
20211017043341 57 47 0.0 0.0 0.00 0.00 0.00 100 1008.1
20211017042832 57 47 0.0 0.0 0.00 0.00 0.00 100 1008.1
20211017042343 58 47 0.0 0.0 0.00 0.00 0.00 100 1008.1
20211017041834 58 47 0.0 0.0 0.00 0.00 0.00 100 1008.2
20211017041346 58 48 0.0 0.0 0.00 0.00 0.00 100 1008.2
20211017040846 59 47 0.0 0.0 0.00 0.00 0.00 100 1008.2
20211017040330 59 48 0.0 0.0 0.00 0.00 0.00 100 1008.2
20211017035841 59 47 0.0 0.0 0.00 0.00 0.00 2 1008.2
20211017035336 59 47 0.0 0.0 0.00 0.00 0.00 3 1008.2
20211017034847 59 47 0.0 0.0 0.00 0.00 0.00 3 1008.3
20211017034338 59 47 0.0 0.0 0.00 0.00 0.00 1 1008.3
20211017033845 59 47 0.0 0.0 0.00 0.00 0.00 100 1008.3
20211017033337 59 47 0.0 0.0 0.00 0.00 0.00 100 1008.6
20211017032828 59 47 0.0 0.0 0.00 0.00 0.00 100 1008.6
20211017032339 59 47 0.0 0.0 0.00 0.00 0.00 100 1008.6
20211017031830 59 47 0.0 0.0 0.00 0.00 0.00 100 1008.7
20211017031341 59 47 0.0 0.0 0.00 0.00 0.00 100 1008.7
20211017030843 59 47 0.0 0.0 0.00 0.00 0.00 100 1008.7
20211017030346 59 47 0.0 0.0 0.00 0.00 0.00 100 1008.8
20211017025835 58 47 0.0 0.0 0.00 0.00 0.00 100 1008.8
20211017025341 58 47 0.0 0.0 0.00 0.00 0.00 100 1008.8
20211017024832 58 47 0.0 0.0 0.00 0.00 0.00 100 1009.1
20211017024343 58 47 0.0 0.0 0.00 0.00 0.00 100 1009.1
20211017023946 58 47 0.0 0.0 0.00 0.00 0.00 100 1009.1
20211017023345 58 47 0.0 0.0 0.00 0.00 0.00 100 1009.2
20211017022836 58 47 0.0 0.0 0.00 0.00 0.00 100 1009.2
20211017022347 58 47 0.0 0.0 0.00 0.00 0.00 100 1009.2
20211017021842 58 47 0.0 0.0 0.00 0.00 0.00 100 1009.1
20211017021333 58 48 0.0 0.0 0.00 0.00 0.00 100 1009.1
20211017020851 58 47 0.0 0.0 0.00 0.00 0.00 100 1009.1
20211017020331 58 47 0.0 0.0 0.00 0.00 0.00 100 1009.1
20211017015842 59 48 0.0 0.0 0.00 0.00 0.00 100 1009.1
20211017015333 59 48 0.0 0.0 0.00 0.00 0.00 100 1009.1
20211017014844 59 48 0.0 0.0 0.00 0.00 0.00 100 1009.1
20211017014335 59 47 0.0 0.0 0.00 0.00 0.00 100 1009.1
20211017013843 59 47 0.0 0.0 0.00 0.00 0.00 100 1009.1
20211017013336 59 48 0.0 0.0 0.00 0.00 0.00 6 1009.1
20211017012831 60 47 0.0 0.0 0.00 0.00 0.00 11 1009.1
20211017012342 61 47 0.0 0.0 0.00 0.00 0.00 13 1009.2
20211017011833 61 48 0.0 0.0 0.00 0.00 0.00 13 1009.2
20211017011344 61 47 0.0 0.0 0.00 0.00 0.00 14 1009.2
20211017010843 61 47 0.0 0.0 0.00 0.00 0.00 15 1009.2
20211017010346 61 47 0.0 0.0 0.00 0.00 0.00 16 1009.3
20211017005837 61 47 0.0 0.0 0.00 0.00 0.00 18 1009.3
20211017005328 62 47 0.0 0.0 0.00 0.00 0.00 20 1009.3
20211017004839 62 47 0.0 0.0 0.00 0.00 0.00 21 1009.5
20211017004334 62 47 0.0 0.0 0.00 0.00 0.00 23 1009.5
20211017003841 62 48 0.0 0.0 0.00 0.00 0.00 24 1009.5
20211017003335 62 48 0.0 0.0 0.00 0.00 0.00 28 1009.7
20211017002846 62 47 0.0 0.0 0.00 0.00 0.00 30 1009.7
20211017002337 62 48 0.0 0.0 0.00 0.00 0.00 33 1009.7
20211017001844 63 48 0.0 0.0 0.00 0.00 0.00 35 1009.7
20211017001335 63 48 0.0 0.0 0.00 0.00 0.00 35 1009.7
20211017000854 63 48 0.0 0.0 0.00 0.00 0.00 35 1009.7
20211017000335 63 48 0.0 0.0 0.00 0.00 0.00 35 1009.8
20211016235846 63 48 0.0 0.0 0.00 0.00 0.00 35 1009.8
20211016235338 63 48 0.0 0.0 0.00 0.00 0.00 36 1009.8
20211016234846 63 48 0.0 0.0 0.00 0.00 0.00 35 1010.1
20211016234337 63 48 0.0 0.0 0.00 0.00 0.00 36 1010.1
20211016233843 63 48 0.0 0.0 0.00 0.00 0.00 35 1010.1
20211016233338 63 48 0.0 0.0 0.00 0.00 0.00 34 1010.2
20211016232828 63 48 0.0 0.0 0.00 0.00 0.00 33 1010.2
20211016232339 63 48 0.9 0.0 0.00 0.00 0.00 34 1010.2
20211016231830 63 47 1.7 0.0 0.00 0.00 0.00 32 1010.3
20211016231341 63 48 0.9 0.0 0.00 0.00 0.00 32 1010.3
20211016230843 63 48 0.9 0.0 0.00 0.00 0.00 31 1010.3
20211016230345 63 48 0.9 0.0 0.00 0.00 0.00 32 1010.7
20211016225836 63 48 0.0 0.0 0.00 0.00 0.00 32 1010.7
20211016225347 63 48 0.0 0.0 0.00 0.00 0.00 31 1010.7
20211016224838 63 48 0.0 0.0 0.00 0.00 0.00 32 1010.8
20211016224329 63 48 0.9 0.0 0.00 0.00 0.00 34 1010.8
20211016223839 63 48 0.9 0.0 0.00 0.00 0.00 33 1010.8
20211016223335 63 46 0.9 0.0 0.00 0.00 0.00 33 1011.0
20211016222846 63 38 0.9 0.0 0.00 0.00 0.00 32 1011.0
20211016222341 63 9 0.0 0.0 0.00 0.00 0.00 30 1011.0
20211016221832 63 48 0.9 0.0 0.00 0.00 0.00 29 1011.2
20211016221343 62 48 2.6 0.0 0.00 0.00 0.00 28 1011.2
20211016220842 62 48 3.5 0.0 0.00 0.00 0.00 30 1011.2
20211016220345 62 49 2.6 0.0 0.00 0.00 0.00 29 1011.4
20211016215836 62 46 2.6 0.0 0.00 0.00 0.00 25 1011.4
20211016215347 62 44 3.5 0.0 0.00 0.00 0.00 24 1011.4
20211016214838 62 42 3.5 0.0 0.00 0.00 0.00 21 1011.7
20211016214329 62 42 3.5 0.0 0.00 0.00 0.00 19 1011.7
20211016213841 62 48 2.6 0.0 0.00 0.00 0.00 8 1011.7
20211016213336 62 44 1.7 0.0 0.00 0.00 0.00 100 1012.0
20211016212847 61 44 0.0 0.0 0.00 0.00 0.00 100 1012.0
20211016212337 59 44 1.7 0.0 0.00 0.00 0.00 100 1011.9
20211016211828 58 44 1.7 0.0 0.00 0.00 0.00 100 1012.4
20211016211339 57 49 1.7 0.0 0.00 0.00 0.00 100 1012.4
20211016210856 56 46 1.7 0.0 0.00 0.00 0.00 100 1012.4
20211016210338 55 360 2.6 0.0 0.00 0.00 0.00 100 1012.6
20211016205829 55 345 2.6 0.0 0.00 0.00 0.00 100 1012.6
20211016205340 54 49 1.7 0.0 0.00 0.00 0.00 100 1012.6
20211016204835 54 30 0.9 0.0 0.00 0.00 0.00 100 1013.0
20211016204346 54 31 0.9 0.0 0.00 0.00 0.00 100 1013.0
20211016203833 53 32 0.9 0.0 0.00 0.00 0.00 100 1012.9
20211016203345 53 32 1.7 0.0 0.00 0.00 0.00 100 1013.2
20211016202836 53 32 1.7 0.0 0.00 0.00 0.00 100 1013.2
20211016202347 53 38 0.9 0.0 0.00 0.00 0.00 100 1013.2
20211016201838 52 38 1.7 0.0 0.00 0.00 0.00 100 1013.5
20211016201329 52 38 0.9 0.0 0.00 0.00 0.00 100 1013.5
20211016200847 52 38 0.9 0.0 0.00 0.00 0.00 100 1013.5
20211016200332 51 38 1.7 0.0 0.00 0.00 0.00 100 1013.8
20211016195843 51 38 1.7 0.0 0.00 0.00 0.00 100 1013.8
20211016195334 51 38 1.7 0.0 0.00 0.00 0.00 100 1013.8
20211016194845 50 38 1.7 0.0 0.00 0.00 0.00 100 1013.9
20211016194336 50 39 0.9 0.0 0.00 0.00 0.00 100 1013.9
20211016193846 50 39 0.9 0.0 0.00 0.00 0.00 100 1013.9
20211016193340 50 29 0.9 0.0 0.00 0.00 0.00 100 1014.1
20211016192831 49 28 0.9 0.0 0.00 0.00 0.00 100 1014.1
20211016192342 49 28 1.7 0.0 0.00 0.00 0.00 100 1014.1
20211016191837 48 28 1.7 0.0 0.00 0.00 0.00 100 1014.3
20211016191328 48 28 0.9 0.0 0.00 0.00 0.00 100 1014.3
20211016190847 48 28 0.9 0.0 0.00 0.00 0.00 100 1014.3
20211016190330 47 28 1.7 0.0 0.00 0.00 0.00 100 1014.5
20211016185842 47 36 1.7 0.0 0.00 0.00 0.00 100 1014.5
20211016185333 47 36 1.7 0.0 0.00 0.00 0.00 100 1014.5
20211016184844 47 36 2.6 0.0 0.00 0.00 0.00 100 1014.5
20211016184335 47 36 1.7 0.0 0.00 0.00 0.00 100 1014.5
20211016183843 47 36 1.7 0.0 0.00 0.00 0.00 100 1014.5
20211016183336 47 36 1.7 0.0 0.00 0.00 0.00 100 1014.6
20211016182831 47 37 1.7 0.0 0.00 0.00 0.00 100 1014.6
20211016182342 46 38 1.7 0.0 0.00 0.00 0.00 100 1014.6
20211016181833 46 38 1.7 0.0 0.00 0.00 0.00 100 1014.8
20211016181344 46 36 1.7 0.0 0.00 0.00 0.00 100 1014.8
20211016180844 46 36 1.7 0.0 0.00 0.00 0.00 100 1014.8
20211016180345 46 36 1.7 0.0 0.00 0.00 0.00 100 1014.9
20211016175836 46 34 1.7 0.0 0.00 0.00 0.00 100 1014.9
20211016175347 46 26 1.7 0.0 0.00 0.00 0.00 100 1014.9
20211016174838 46 355 0.9 0.0 0.00 0.00 0.00 100 1015.0
20211016174333 46 340 0.9 0.0 0.00 0.00 0.00 100 1015.0
20211016173839 46 340 0.9 0.0 0.00 0.00 0.00 100 1015.0
20211016173332 46 336 0.0 0.0 0.00 0.00 0.00 100 1015.1
20211016172843 45 333 0.0 0.0 0.00 0.00 0.00 100 1015.1
20211016172334 45 333 0.0 0.0 0.00 0.00 0.00 100 1015.1
20211016171844 45 333 0.0 0.0 0.00 0.00 0.00 100 1015.0
20211016171336 45 333 0.0 0.0 0.00 0.00 0.00 100 1015.0
20211016170855 45 319 0.0 0.0 0.00 0.00 0.00 100 1015.0
20211016170338 45 208 0.0 0.0 0.00 0.00 0.00 100 1015.1
20211016165832 45 207 0.0 0.0 0.00 0.00 0.00 100 1015.1
20211016165344 45 208 0.0 0.0 0.00 0.00 0.00 100 1015.1
20211016164835 44 207 0.0 0.0 0.00 0.00 0.00 100 1015.1
20211016164346 44 207 0.0 0.0 0.00 0.00 0.00 100 1015.1
20211016163834 44 208 0.0 0.0 0.00 0.00 0.00 100 1015.1
20211016163346 44 207 0.0 0.0 0.00 0.00 0.00 100 1015.1
20211016162838 44 208 0.0 0.0 0.00 0.00 0.00 100 1015.1
20211016162329 44 208 0.0 0.0 0.00 0.00 0.00 100 1015.1
20211016161840 44 208 0.0 0.0 0.00 0.00 0.00 100 1015.2
20211016161335 44 208 0.0 0.0 0.00 0.00 0.00 100 1015.2
20211016160855 44 208 0.0 0.0 0.00 0.00 0.00 100 1015.2
20211016160338 43 208 0.0 0.0 0.00 0.00 0.00 100 1015.4
20211016155828 43 208 0.0 0.0 0.00 0.00 0.00 100 1015.4
20211016155340 43 207 0.0 0.0 0.00 0.00 0.00 100 1015.4
20211016154832 43 207 0.0 0.0 0.00 0.00 0.00 100 1015.5
20211016154343 43 208 0.0 0.0 0.00 0.00 0.00 100 1015.5
20211016153832 43 207 0.0 0.0 0.00 0.00 0.00 100 1015.5
20211016153347 43 208 0.0 0.0 0.00 0.00 0.00 100 1015.6